BTK7501 WIHH-WARR

Flight info

Callsign BTK7501
Flight time N/A
Altitude 35000
Route CA T3 BA
Aircraft B738/M-SDE2E3FGHIRWXY/LB1

Departure

Time 2026-04-16 09:25
Airport Halim Perdanakusuma International Airport (WIHH)

Arrival

Time N/A
Airport Juanda International Airport (WARR)
Time Latitude Longitude Altitude Speed Heading
2026-04-16 09:09 -6.26526 106.88808 99 ft 0 kts 334°
2026-04-16 09:15 -6.26537 106.88812 99 ft 2 kts 334°
2026-04-16 09:15 -6.26550 106.88819 99 ft 2 kts 334°
2026-04-16 09:16 -6.26554 106.88821 99 ft 0 kts 334°
2026-04-16 09:16 -6.26559 106.88823 99 ft 2 kts 334°
2026-04-16 09:16 -6.26567 106.88834 99 ft 2 kts 276°
2026-04-16 09:16 -6.26566 106.88844 99 ft 0 kts 240°
2026-04-16 09:17 -6.26563 106.88850 99 ft 0 kts 244°
2026-04-16 09:19 -6.26576 106.88822 99 ft 7 kts 244°
2026-04-16 09:19 -6.26595 106.88783 99 ft 5 kts 244°
2026-04-16 09:19 -6.26609 106.88753 99 ft 5 kts 244°
2026-04-16 09:19 -6.26632 106.88705 99 ft 7 kts 247°
2026-04-16 09:20 -6.26651 106.88659 99 ft 7 kts 246°
2026-04-16 09:20 -6.26673 106.88610 99 ft 8 kts 246°
2026-04-16 09:20 -6.26700 106.88549 99 ft 8 kts 246°
2026-04-16 09:20 -6.26718 106.88509 99 ft 4 kts 245°
2026-04-16 09:21 -6.26737 106.88487 99 ft 5 kts 211°
2026-04-16 09:21 -6.26788 106.88490 99 ft 9 kts 156°
2026-04-16 09:21 -6.26855 106.88526 99 ft 9 kts 155°
2026-04-16 09:21 -6.26916 106.88529 99 ft 10 kts 205°
2026-04-16 09:22 -6.26965 106.88469 99 ft 12 kts 242°
2026-04-16 09:22 -6.27004 106.88384 99 ft 14 kts 254°
2026-04-16 09:22 -6.27041 106.88280 99 ft 19 kts 248°
2026-04-16 09:22 -6.27095 106.88161 99 ft 16 kts 243°
2026-04-16 09:23 -6.27139 106.88068 99 ft 12 kts 248°
2026-04-16 09:23 -6.27166 106.87992 99 ft 10 kts 255°
2026-04-16 09:23 -6.27175 106.87927 99 ft 6 kts 237°
2026-04-16 09:23 -6.27201 106.87929 99 ft 3 kts 106°
2026-04-16 09:24 -6.27196 106.87950 99 ft 2 kts 69°
2026-04-16 09:24 -6.27191 106.87961 99 ft 1 kts 62°
2026-04-16 09:24 -6.27179 106.87984 99 ft 8 kts 64°
2026-04-16 09:24 -6.27101 106.88151 99 ft 62 kts 65°
2026-04-16 09:25 -6.26797 106.88815 99 ft 139 kts 66°
2026-04-16 09:25 -6.26306 106.89896 174 ft 194 kts 64°
2026-04-16 09:25 -6.25734 106.91207 749 ft 209 kts 65°
2026-04-16 09:25 -6.25138 106.92632 1099 ft 230 kts 68°
2026-04-16 09:26 -6.24907 106.94240 1437 ft 236 kts 95°
2026-04-16 09:26 -6.25514 106.95778 1792 ft 243 kts 122°
2026-04-16 09:26 -6.26579 106.97160 2145 ft 257 kts 126°
2026-04-16 09:26 -6.27699 106.98631 2460 ft 266 kts 125°
2026-04-16 09:27 -6.28820 107.00103 2828 ft 268 kts 126°
2026-04-16 09:27 -6.30028 107.01562 3211 ft 272 kts 128°
2026-04-16 09:27 -6.31285 107.03099 3610 ft 296 kts 128°
2026-04-16 09:27 -6.32624 107.04737 3992 ft 303 kts 128°
2026-04-16 09:28 -6.34054 107.06256 4354 ft 307 kts 141°
2026-04-16 09:28 -6.35929 107.07376 4748 ft 310 kts 150°
2026-04-16 09:28 -6.37653 107.08656 5109 ft 309 kts 128°
2026-04-16 09:28 -6.38699 107.10416 5483 ft 308 kts 113°
2026-04-16 09:29 -6.39604 107.12409 5871 ft 322 kts 115°
2026-04-16 09:29 -6.40657 107.14524 6253 ft 349 kts 116°
2026-04-16 09:29 -6.41806 107.16743 6628 ft 357 kts 117°
2026-04-16 09:29 -6.42956 107.18947 6998 ft 359 kts 117°
2026-04-16 09:30 -6.44144 107.21214 7378 ft 361 kts 117°
2026-04-16 09:30 -6.45324 107.23462 7753 ft 363 kts 117°
2026-04-16 09:30 -6.46518 107.25731 8132 ft 365 kts 117°
2026-04-16 09:30 -6.47703 107.27982 8506 ft 367 kts 117°
2026-04-16 09:31 -6.48914 107.30282 8886 ft 369 kts 117°
2026-04-16 09:31 -6.50125 107.32581 9264 ft 371 kts 117°
2026-04-16 09:31 -6.51355 107.34915 9646 ft 373 kts 117°
2026-04-16 09:31 -6.52585 107.37249 10025 ft 375 kts 117°
2026-04-16 09:32 -6.53799 107.39554 10399 ft 377 kts 117°
2026-04-16 09:32 -6.55032 107.41894 10775 ft 379 kts 117°
2026-04-16 09:32 -6.56250 107.44301 11153 ft 381 kts 112°
2026-04-16 09:32 -6.56933 107.46858 11527 ft 382 kts 98°
2026-04-16 09:33 -6.57243 107.49528 11913 ft 385 kts 96°
2026-04-16 09:33 -6.57545 107.52248 12312 ft 387 kts 97°
2026-04-16 09:33 -6.57864 107.54946 12712 ft 389 kts 97°
2026-04-16 09:33 -6.58190 107.57687 13117 ft 391 kts 97°
2026-04-16 09:34 -6.58516 107.60437 13523 ft 393 kts 97°
2026-04-16 09:34 -6.58841 107.63168 13923 ft 395 kts 97°
2026-04-16 09:34 -6.59175 107.65968 14332 ft 397 kts 97°
2026-04-16 09:34 -6.59440 107.68201 14655 ft 399 kts 97°
2026-04-16 09:35 -6.59776 107.71015 15063 ft 401 kts 97°
2026-04-16 09:35 -6.60108 107.73807 15464 ft 403 kts 97°
2026-04-16 09:35 -6.60444 107.76630 15868 ft 405 kts 97°
2026-04-16 09:35 -6.60783 107.79476 16273 ft 407 kts 97°
2026-04-16 09:36 -6.61121 107.82320 16676 ft 409 kts 96°
2026-04-16 09:36 -6.61461 107.85181 17079 ft 411 kts 96°
2026-04-16 09:36 -6.61804 107.88065 17483 ft 413 kts 96°
2026-04-16 09:36 -6.62147 107.90947 17884 ft 415 kts 96°
2026-04-16 09:37 -6.62489 107.93830 18252 ft 418 kts 96°
2026-04-16 09:37 -6.62838 107.96781 18633 ft 419 kts 96°
2026-04-16 09:37 -6.63182 107.99695 19009 ft 421 kts 96°
2026-04-16 09:37 -6.63534 108.02673 19391 ft 423 kts 96°
2026-04-16 09:38 -6.63882 108.05616 19766 ft 426 kts 96°
2026-04-16 09:38 -6.64232 108.08581 20142 ft 428 kts 96°
2026-04-16 09:38 -6.64583 108.11558 20518 ft 430 kts 96°
2026-04-16 09:38 -6.64938 108.14569 20897 ft 432 kts 96°
2026-04-16 09:39 -6.65294 108.17593 21275 ft 434 kts 96°
2026-04-16 09:39 -6.65656 108.20669 21658 ft 436 kts 96°
2026-04-16 09:39 -6.66013 108.23696 22033 ft 438 kts 96°
2026-04-16 09:39 -6.66376 108.26786 22414 ft 440 kts 96°
2026-04-16 09:40 -6.66738 108.29867 22792 ft 443 kts 96°
2026-04-16 09:40 -6.67103 108.32967 23170 ft 445 kts 96°
2026-04-16 09:40 -6.67466 108.36063 23546 ft 447 kts 96°
2026-04-16 09:40 -6.67833 108.39188 23923 ft 449 kts 96°
2026-04-16 09:41 -6.68205 108.42356 24304 ft 452 kts 96°
2026-04-16 09:41 -6.68576 108.45525 24683 ft 454 kts 96°
2026-04-16 09:41 -6.68946 108.48675 25058 ft 456 kts 96°
2026-04-16 09:41 -6.69321 108.51880 25437 ft 458 kts 96°
2026-04-16 09:42 -6.69695 108.55067 25813 ft 459 kts 96°
2026-04-16 09:42 -6.70104 108.58256 26189 ft 460 kts 98°
2026-04-16 09:42 -6.70601 108.61463 26567 ft 460 kts 98°
2026-04-16 09:42 -6.71106 108.64671 26945 ft 459 kts 98°
2026-04-16 09:43 -6.71593 108.67823 27318 ft 459 kts 98°
2026-04-16 09:43 -6.72081 108.71014 27696 ft 458 kts 98°
2026-04-16 09:43 -6.72572 108.74239 28078 ft 458 kts 98°
2026-04-16 09:43 -6.73052 108.77403 28454 ft 457 kts 98°
2026-04-16 09:44 -6.73527 108.80538 28828 ft 456 kts 98°
2026-04-16 09:44 -6.74012 108.83747 29211 ft 455 kts 98°
2026-04-16 09:44 -6.74488 108.86895 29587 ft 454 kts 98°
2026-04-16 09:44 -6.74964 108.90050 29966 ft 452 kts 98°
2026-04-16 09:45 -6.75438 108.93192 30344 ft 451 kts 98°
2026-04-16 09:45 -6.75911 108.96328 30723 ft 449 kts 98°
2026-04-16 09:45 -6.76375 108.99410 31096 ft 448 kts 98°
2026-04-16 09:45 -6.76844 109.02520 31474 ft 446 kts 98°
2026-04-16 09:46 -6.77313 109.05634 31854 ft 444 kts 98°
2026-04-16 09:46 -6.77772 109.08679 32228 ft 443 kts 98°
2026-04-16 09:46 -6.78237 109.11762 32606 ft 442 kts 98°
2026-04-16 09:46 -6.78700 109.14831 32984 ft 441 kts 98°
2026-04-16 09:47 -6.79164 109.17911 33365 ft 439 kts 98°
2026-04-16 09:47 -6.79622 109.20941 33741 ft 437 kts 98°
2026-04-16 09:47 -6.80080 109.23980 34119 ft 436 kts 98°
2026-04-16 09:47 -6.80534 109.26978 34493 ft 434 kts 98°
2026-04-16 09:48 -6.80988 109.29984 34786 ft 434 kts 98°
2026-04-16 09:48 -6.81906 109.36055 34803 ft 436 kts 98°
2026-04-16 09:49 -6.82820 109.42095 34804 ft 433 kts 98°
2026-04-16 09:49 -6.83732 109.48109 34804 ft 433 kts 98°
2026-04-16 09:50 -6.84645 109.54137 34804 ft 433 kts 98°
2026-04-16 09:50 -6.85555 109.60132 34804 ft 433 kts 98°
2026-04-16 09:51 -6.86468 109.66141 34804 ft 433 kts 98°
2026-04-16 09:51 -6.87384 109.72172 34804 ft 433 kts 98°
2026-04-16 09:52 -6.88301 109.78198 34804 ft 433 kts 98°
2026-04-16 09:52 -6.89214 109.84195 34804 ft 434 kts 98°
2026-04-16 09:53 -6.90135 109.90239 34804 ft 433 kts 98°
2026-04-16 09:53 -6.91048 109.96224 34804 ft 433 kts 98°
2026-04-16 09:54 -6.91969 110.02261 34804 ft 433 kts 98°
2026-04-16 09:54 -6.92891 110.08292 34804 ft 434 kts 98°
2026-04-16 09:55 -6.93811 110.14313 34804 ft 434 kts 98°
2026-04-16 09:55 -6.94728 110.20306 34804 ft 434 kts 98°
2026-04-16 09:56 -6.95653 110.26347 34804 ft 434 kts 98°
2026-04-16 09:56 -6.96577 110.32375 34804 ft 434 kts 98°
2026-04-16 09:57 -6.97408 110.38395 34802 ft 433 kts 94°
2026-04-16 09:57 -6.97604 110.44470 34804 ft 433 kts 91°
2026-04-16 09:58 -6.97797 110.50510 34803 ft 433 kts 91°
2026-04-16 09:58 -6.97941 110.56620 34803 ft 433 kts 91°
2026-04-16 09:59 -6.98058 110.62682 34804 ft 433 kts 91°
2026-04-16 09:59 -6.98161 110.68769 34804 ft 434 kts 90°
2026-04-16 10:00 -6.98256 110.74838 34804 ft 434 kts 90°
2026-04-16 10:00 -6.98349 110.80939 34803 ft 434 kts 90°
2026-04-16 10:01 -6.98485 110.90051 34803 ft 433 kts 90°
2026-04-16 10:01 -6.98575 110.96148 34804 ft 434 kts 90°
2026-04-16 10:02 -6.98665 111.02252 34804 ft 434 kts 90°
2026-04-16 10:02 -6.98756 111.08330 34804 ft 434 kts 91°
2026-04-16 10:03 -6.98847 111.14420 34804 ft 435 kts 91°
2026-04-16 10:03 -6.98940 111.20506 34804 ft 435 kts 91°
2026-04-16 10:04 -6.99033 111.26602 34803 ft 435 kts 91°
2026-04-16 10:04 -6.99126 111.32689 34804 ft 435 kts 91°
2026-04-16 10:05 -6.99221 111.38764 34804 ft 435 kts 91°
2026-04-16 10:05 -6.99357 111.44888 34803 ft 435 kts 92°
2026-04-16 10:06 -6.99740 111.50960 34803 ft 435 kts 95°
2026-04-16 10:06 -7.00419 111.57044 34804 ft 435 kts 98°
2026-04-16 10:07 -7.01407 111.63090 34803 ft 435 kts 101°
2026-04-16 10:07 -7.02668 111.68904 34804 ft 435 kts 103°
2026-04-16 10:08 -7.04272 111.74786 34804 ft 435 kts 107°
2026-04-16 10:08 -7.06193 111.80575 34804 ft 435 kts 110°
2026-04-16 10:09 -7.08422 111.86230 34804 ft 435 kts 113°
2026-04-16 10:09 -7.10970 111.91769 34804 ft 436 kts 116°